353  
ASUS41 KCLE 180112  
RWRCLE  
OHIO REGIONAL WEATHER ROUNDUP  
NATIONAL WEATHER SERVICE WILMINGTON, OH  
900 PM EDT FRI AUG 17 2018  
 
NOTE: "FAIR" INDICATES FEW OR NO CLOUDS BELOW 12,000 FEET WITH NO  
SIGNIFICANT WEATHER AND/OR S TO VISIBILITY
.  
 
OHZ001>008-015>018-024>027-034-035-043-044-180200-  
NORTHWEST OHIO  
 
CITY SKY/WX TMP DP RH WIND PRES REMARKS
 
DEFIANCE FAIR 69 69 100 CALM 29.96S  
FINDLAY LGT RAIN 71 69 93 CALM 29.95S  
TOLEDO EXPRESS FAIR 70 68 93 W9 29.95R  
TOLEDO EXEC FAIR 70 69 97 S3 29.95R  
LIMA FAIR 69 67 93 N3 29.98R  

 
 
OHZ009>014-019>023-028>033-038-089-180200-  
NORTHEAST OHIO  
 
CITY SKY/WX TMP DP RH WIND PRES REMARKS
 
CLE-HOPKINS CLOUDY 75 69 81 SW6 29.96R THUNDER  
CLE-LAKEFRONT MOCLDY 76 69 79 SW7 29.92R  
CUY CO. ARPT MOCLDY 75 72 88 SW8 29.94S  
LORAIN-ELYRIA CLOUDY 72 65 78 W10 29.94R  
ASHTABULA FAIR 72 71 97 S5 29.96R  
AKRON-CANTON CLOUDY 73 69 87 SW5 29.97S  
WOOSTER FAIR 72 71 97 S6 29.97S  
MANSFIELD MOCLDY 76 71 85 SW8 29.97S  
YOUNGSTOWN CLOUDY 72 69 90 CALM 29.97R  

 
 
OHZ042-051>053-060>062-070>072-077>081-180200-  
SOUTHWEST OHIO  
 
CITY SKY/WX TMP DP RH WIND PRES REMARKS
 
CINC-COVINGTON MOCLDY 73 71 93 SW3 29.99F  
CINC-LUNKEN FAIR 74 70 87 SW3 29.99S  
HAMILTON FAIR 74 71 91 CALM 29.99S  
DAYTON MOCLDY 72 71 97 SW6 30.00R  
WRIGHT-PAT AFB MOCLDY 74 70 86 SW9 29.98R  
DAYTON GENERAL FAIR 76 70 82 CALM 29.99R  
WILMINGTON FAIR 73 73 100 SW5 29.99S  

 
 
OHZ036-037-039>041-045>050-054>059-063>069-073>076-082>088-180200-  
CENTRAL AND SOUTHEAST OHIO  
 
CITY SKY/WX TMP DP RH WIND PRES REMARKS
 
COLUMBUS CLOUDY 77 70 79 SW5 29.97R  
OSU AIRPORT CLOUDY 76 71 85 SW8 29.97R  
BOLTON FIELD CLOUDY 74 71 91 SW3 29.99R  
RICKENBACK AFB CLOUDY 75 72 91 S6 29.97S  
NEWARK FAIR 75 72 90 SW5 29.97R  
MARION CLOUDY 76 70 82 SW8 29.97R  
LANCASTER MOCLDY 75 72 90 SW3 29.98S  
ZANESVILLE CLOUDY 76 71 85 SW7 29.98R  
NEW PHILLY CLOUDY 73 71 93 S3 29.97S  

 
 
 
CLICK HERE TO GO TO PREVIOUS BULLETINS.

The Nexlab OH Page
The Nexlab PA Page Main Text Page